Battle Mountain, Nevada, United States (89820)
Lat: 40.64N, Lon: 116.93W
Wx Zone: NVZ036
Local Info
Past Weather Observations for Sunday, April 19, 2015

NOTE: This archive is for the closest National Weather Service station to Battle Mountain. Information may differ from the station used for current weather conditions.

Click here for Long-term Archive

Time Weather Temperature Dewpoint Humidity Pressure Winds Precip Visibility
23:56
Clear
37°F / 3°C 10°F / -12°C 33% 30.01 in
(1016 mb)
NE 4.6 mph
(NE 7 kph)
- 10SM
22:56
Clear
43°F / 6°C 12°F / -11°C 29% 30.01 in
(1016 mb)
ENE 5.8 mph
(ENE 9 kph)
- 10SM
21:56
Clear
55°F / 13°C 12°F / -11°C 18% 29.98 in
(1015 mb)
NE 15 mph
(NE 24 kph)
- 10SM
20:56
Clear
52°F / 11°C 12°F / -11°C 20% 29.98 in
(1015 mb)
N 9.2 mph
(N 15 kph)
- 10SM
19:56
Clear
46°F / 8°C 10°F / -12°C 23% 29.98 in
(1015 mb)
Calm - 10SM
18:56
Clear
61°F / 16°C 12°F / -11°C 15% 29.98 in
(1015 mb)
N 6.9 mph
(N 11 kph)
- 10SM
17:56
Clear
70°F / 21°C 10°F / -12°C 10% 29.98 in
(1015 mb)
N 8.1 mph
(N 13 kph)
- 10SM
16:56
Clear
72°F / 22°C 10°F / -12°C 9% 29.98 in
(1015 mb)
NNW 5.8 mph
(NNW 9 kph)
- 10SM
15:56
Clear
72°F / 22°C 10°F / -12°C 9% 30.01 in
(1016 mb)
NW 9.2 mph
(NW 15 kph)
- 10SM
14:56
Clear
72°F / 22°C 10°F / -12°C 9% 30.01 in
(1016 mb)
Variable 6.9 mph
(Variable 11 kph)
- 10SM
13:56
Clear
70°F / 21°C 9°F / -13°C 9% 30.04 in
(1017 mb)
Calm - 10SM
12:56
Clear
68°F / 20°C 12°F / -11°C 11% 30.06 in
(1018 mb)
SW 3.5 mph
(SW 6 kph)
- 10SM
11:56
Clear
66°F / 19°C 14°F / -10°C 13% 30.09 in
(1019 mb)
Calm - 10SM
10:56
Clear
64°F / 18°C 12°F / -11°C 13% 30.12 in
(1020 mb)
N 6.9 mph
(N 11 kph)
- 10SM
09:56
Clear
61°F / 16°C 14°F / -10°C 16% 30.15 in
(1021 mb)
Variable 4.6 mph
(Variable 7 kph)
- 10SM
08:56
Clear
55°F / 13°C 18°F / -8°C 23% 30.15 in
(1021 mb)
Variable 3.5 mph
(Variable 6 kph)
- 10SM
07:56
Clear
48°F / 9°C 18°F / -8°C 29% 30.18 in
(1022 mb)
Calm - 10SM
06:56
Clear
39°F / 4°C 14°F / -10°C 36% 30.18 in
(1022 mb)
S 5.8 mph
(S 9 kph)
- 10SM
05:56
Clear
28°F / -2°C 10°F / -12°C 47% 30.18 in
(1022 mb)
ENE 3.5 mph
(ENE 6 kph)
- 10SM
04:56
Clear
23°F / -5°C 9°F / -13°C 54% 30.15 in
(1021 mb)
SE 6.9 mph
(SE 11 kph)
- 10SM
Time Weather Temperature Dewpoint Humidity Pressure Winds Precip Visibility


Weather for websites

WeatherForYou.com, LLC is not responsible for any damages or problems caused by this service. Current weather conditions are obtained from the closest station including government and personal stations which may have varying degrees of accuracy. Weather forecasts are derived from the NOAA NDFD. Like all things, this site belongs to Jesus Christ... He just trusts us to maintain it. If you have any questions or comments email webmaster@weatherforyou.com

Copyright © 2015, WeatherForYou.com LLC. All rights reserved.